• In Czech Republic
  • List of Countries
  • For 7 days
  • Water Temperature
  • Satellite Maps
  • Weather Map
  • Weather Widgets
  • user-avatar
    Login

    Hourly Weather Druzhba

    Today, 26 September, Wednesday

    Time Temperature Precipitation Wind Pressure Humidity
    00:00 +7°C° 0 mm 4 mps 747 mmHg 88%
    01:00 +7°C° 0 mm 4 mps 747 mmHg 89%
    02:00 +6°C° 0 mm 4 mps 748 mmHg 90%
    03:00 +6°C° 0 mm 4 mps 748 mmHg 91%
    04:00 +6°C° 0 mm 4 mps 748 mmHg 91%
    05:00 +6°C° 0 mm 4 mps 749 mmHg 91%
    06:00 +6°C° 0 mm 4 mps 750 mmHg 91%
    07:00 +7°C° 0 mm 5 mps 750 mmHg 88%
    08:00 +7°C° 0 mm 5 mps 751 mmHg 85%
    09:00 +8°C° 0 mm 5 mps 751 mmHg 82%
    10:00 +8°C° 0 mm 5 mps 752 mmHg 80%
    11:00 +9°C° 0 mm 5 mps 753 mmHg 78%
    12:00 +9°C° 0 mm 5 mps 753 mmHg 77%
    13:00 +10°C° 0 mm 4 mps 753 mmHg 76%
    14:00 +10°C° 0 mm 4 mps 754 mmHg 75%
    15:00 +10°C° 0 mm 4 mps 754 mmHg 74%
    16:00 +8°C° 0 mm 4 mps 755 mmHg 75%
    17:00 +8°C° 0 mm 3 mps 755 mmHg 76%
    18:00 +8°C° 0 mm 3 mps 755 mmHg 78%
    19:00 +7°C° 0 mm 3 mps 755 mmHg 78%
    20:00 +7°C° 0 mm 3 mps 755 mmHg 79%
    21:00 +5°C° 0 mm 3 mps 755 mmHg 80%
    22:00 +4°C° 0 mm 3 mps 755 mmHg 81%
    23:00 +4°C° 0 mm 3 mps 754 mmHg 82%

    Tomorrow, 27 September, Thursday

    Time Temperature Precipitation Wind Pressure Humidity
    00:00 +3°C° 0 mm 3 mps 754 mmHg 84%
    01:00 +3°C° 0 mm 3 mps 753 mmHg 84%
    02:00 +3°C° 0 mm 3 mps 753 mmHg 84%
    03:00 +3°C° 0 mm 4 mps 752 mmHg 84%
    04:00 +3°C° 0 mm 4 mps 752 mmHg 83%
    05:00 +2°C° 0 mm 5 mps 751 mmHg 82%
    06:00 +2°C° 0 mm 5 mps 750 mmHg 81%
    07:00 +3°C° 0 mm 6 mps 749 mmHg 75%
    08:00 +4°C° 0 mm 7 mps 748 mmHg 70%
    09:00 +5°C° 0 mm 8 mps 748 mmHg 64%
    10:00 +5°C° 0.3 mm 8 mps 747 mmHg 66%
    11:00 +5°C° 0.3 mm 8 mps 746 mmHg 68%
    12:00 +5°C° 0.3 mm 9 mps 745 mmHg 70%
    13:00 +5°C° 0.7 mm 9 mps 744 mmHg 73%
    14:00 +4°C° 0.7 mm 8 mps 743 mmHg 76%
    15:00 +4°C° 0.7 mm 8 mps 743 mmHg 80%
    16:00 +4°C° 0.9 mm 7 mps 742 mmHg 82%
    17:00 +4°C° 0.9 mm 7 mps 742 mmHg 85%
    18:00 +4°C° 0.9 mm 6 mps 741 mmHg 88%
    19:00 +4°C° 0.3 mm 6 mps 741 mmHg 87%
    20:00 +5°C° 0.3 mm 5 mps 741 mmHg 87%
    21:00 +6°C° 0.3 mm 5 mps 741 mmHg 87%
    22:00 +5°C° 0 mm 5 mps 742 mmHg 87%
    23:00 +5°C° 0 mm 5 mps 742 mmHg 87%

    Day after tomorrow, 28 September, Friday

    Time Temperature Precipitation Wind Pressure Humidity
    00:00 +3°C° 0 mm 5 mps 743 mmHg 87%
    01:00 +3°C° 0 mm 5 mps 743 mmHg 87%
    02:00 +3°C° 0 mm 5 mps 743 mmHg 88%
    03:00 +2°C° 0 mm 5 mps 744 mmHg 88%
    04:00 +2°C° 0 mm 5 mps 744 mmHg 89%
    05:00 +2°C° 0 mm 5 mps 744 mmHg 89%
    06:00 +2°C° 0 mm 5 mps 744 mmHg 90%
    07:00 +3°C° 0 mm 6 mps 744 mmHg 85%
    08:00 +5°C° 0 mm 6 mps 744 mmHg 79%
    09:00 +7°C° 0 mm 6 mps 744 mmHg 74%
    10:00 +7°C° 0.3 mm 6 mps 744 mmHg 74%
    11:00 +7°C° 0.3 mm 6 mps 744 mmHg 74%
    12:00 +8°C° 0.3 mm 7 mps 743 mmHg 74%
    13:00 +7°C° 1.6 mm 6 mps 743 mmHg 79%
    14:00 +7°C° 1.6 mm 6 mps 742 mmHg 83%
    15:00 +7°C° 1.6 mm 6 mps 741 mmHg 88%
    16:00 +8°C° 1.2 mm 7 mps 740 mmHg 87%
    17:00 +9°C° 1.2 mm 8 mps 739 mmHg 86%
    18:00 +10°C° 1.2 mm 9 mps 738 mmHg 85%
    19:00 +10°C° 0.9 mm 8 mps 739 mmHg 85%
    20:00 +10°C° 0.9 mm 8 mps 739 mmHg 85%
    21:00 +10°C° 0.9 mm 8 mps 739 mmHg 85%
    22:00 +8°C° 0.1 mm 7 mps 741 mmHg 84%
    23:00 +7°C° 0.1 mm 6 mps 742 mmHg 84%

    29 September, Saturday

    Time Temperature Precipitation Wind Pressure Humidity
    00:00 +4°C° 0.1 mm 6 mps 743 mmHg 83%
    01:00 +3°C° 0 mm 5 mps 744 mmHg 85%
    02:00 +3°C° 0 mm 5 mps 745 mmHg 87%
    03:00 +2°C° 0 mm 5 mps 746 mmHg 88%
    04:00 +2°C° 0 mm 5 mps 747 mmHg 87%
    05:00 +1°C° 0 mm 5 mps 748 mmHg 86%
    06:00 +1°C° 0 mm 5 mps 748 mmHg 85%
    07:00 +2°C° 0 mm 5 mps 749 mmHg 80%
    08:00 +3°C° 0 mm 6 mps 750 mmHg 75%
    09:00 +3°C° 0 mm 6 mps 750 mmHg 70%
    10:00 +4°C° 0 mm 7 mps 751 mmHg 65%
    11:00 +5°C° 0 mm 7 mps 751 mmHg 60%
    12:00 +6°C° 0 mm 7 mps 752 mmHg 56%
    13:00 +7°C° 0 mm 6 mps 752 mmHg 55%
    14:00 +8°C° 0 mm 6 mps 752 mmHg 54%
    15:00 +8°C° 0 mm 6 mps 753 mmHg 53%
    16:00 +7°C° 0 mm 5 mps 753 mmHg 57%
    17:00 +6°C° 0 mm 4 mps 754 mmHg 61%
    18:00 +5°C° 0 mm 3 mps 754 mmHg 66%
    19:00 +4°C° 0 mm 3 mps 755 mmHg 67%
    20:00 +4°C° 0 mm 3 mps 755 mmHg 69%
    21:00 +4°C° 0 mm 3 mps 755 mmHg 70%
    22:00 +3°C° 0 mm 3 mps 756 mmHg 72%
    23:00 +3°C° 0 mm 3 mps 756 mmHg 73%

    30 September, Sunday

    Time Temperature Precipitation Wind Pressure Humidity
    00:00 +4°C° 0 mm 2 mps 756 mmHg 75%
    01:00 +3°C° 0 mm 2 mps 756 mmHg 77%
    02:00 +3°C° 0 mm 2 mps 757 mmHg 79%
    03:00 +2°C° 0 mm 2 mps 757 mmHg 81%
    04:00 +2°C° 0 mm 2 mps 757 mmHg 83%
    05:00 +2°C° 0 mm 2 mps 757 mmHg 84%
    06:00 +1°C° 0 mm 2 mps 758 mmHg 85%
    07:00 +3°C° 0 mm 2 mps 758 mmHg 79%
    08:00 +3°C° 0 mm 3 mps 758 mmHg 72%
    09:00 +4°C° 0 mm 3 mps 758 mmHg 66%
    10:00 +5°C° 0 mm 3 mps 758 mmHg 61%
    11:00 +7°C° 0 mm 3 mps 758 mmHg 56%
    12:00 +8°C° 0 mm 3 mps 758 mmHg 51%
    13:00 +8°C° 0 mm 3 mps 758 mmHg 51%
    14:00 +7°C° 0 mm 4 mps 758 mmHg 51%
    15:00 +7°C° 0 mm 4 mps 758 mmHg 51%
    16:00 +7°C° 0 mm 3 mps 758 mmHg 56%
    17:00 +4°C° 0 mm 3 mps 758 mmHg 62%
    18:00 +4°C° 0 mm 2 mps 759 mmHg 67%
    19:00 +3°C° 0 mm 2 mps 759 mmHg 69%
    20:00 +3°C° 0 mm 2 mps 759 mmHg 72%
    21:00 +2°C° 0 mm 2 mps 759 mmHg 74%
    22:00 +2°C° 0 mm 2 mps 759 mmHg 75%
    23:00 +1°C° 0 mm 2 mps 759 mmHg 75%

    1 October, Monday

    Time Temperature Precipitation Wind Pressure Humidity
    00:00 +1°C° 0 mm 2 mps 759 mmHg 76%
    01:00 +1°C° 0 mm 2 mps 758 mmHg 75%
    02:00 +1°C° 0 mm 2 mps 758 mmHg 75%
    03:00 -1°C° 0 mm 2 mps 758 mmHg 74%
    04:00 -1°C° 0 mm 2 mps 758 mmHg 73%
    05:00 0°C° 0 mm 3 mps 758 mmHg 73%
    06:00 0°C° 0 mm 3 mps 758 mmHg 73%
    07:00 +1°C° 0 mm 3 mps 757 mmHg 69%
    08:00 +3°C° 0 mm 4 mps 757 mmHg 66%
    09:00 +5°C° 0 mm 4 mps 757 mmHg 63%
    10:00 +7°C° 0 mm 4 mps 757 mmHg 59%
    11:00 +8°C° 0 mm 5 mps 757 mmHg 55%
    12:00 +10°C° 0 mm 5 mps 757 mmHg 51%
    13:00 +10°C° 0 mm 5 mps 756 mmHg 52%
    14:00 +10°C° 0 mm 5 mps 756 mmHg 52%
    15:00 +10°C° 0 mm 5 mps 756 mmHg 53%
    16:00 +10°C° 0 mm 4 mps 756 mmHg 59%
    17:00 +7°C° 0 mm 4 mps 756 mmHg 65%
    18:00 +7°C° 0 mm 3 mps 756 mmHg 72%
    19:00 +7°C° 0 mm 3 mps 756 mmHg 73%
    20:00 +5°C° 0 mm 3 mps 756 mmHg 75%
    21:00 +5°C° 0 mm 3 mps 756 mmHg 76%
    22:00 +5°C° 0 mm 3 mps 756 mmHg 76%
    23:00 +5°C° 0 mm 3 mps 756 mmHg 76%
    Show more